Quillayute, WA
on Saturday, November 10, 2012

Saturday
Previous Day Next Day
Daily Summary
 ActualAverageRecord
Temperature
Mean Temperature °F 45°F  
Max Temperature 48°F 51°F 65°F (1976)
Min Temperature 27°F 39°F 23°F (1982)
Degree Days
Heating Degree Days 27 20  
Month to date heating degree days 190  
Since 1 July heating degree days 1280  
Cooling Degree Days 0 0  
Month to date cooling degree days 0  
Year to date cooling degree days 19  
Moisture
Dew Point 28°F   
Average Humidity 72    
Maximum Humidity 89    
Minimum Humidity 32    
Precipitation
Precipitation 0.00 in 0.52 in 2.10 in (2006)
Month to date precipitation 4.93  
Year to date precipitation 75.96  
Wind
Wind Speed 4 mph   
Max Wind Speed 9 mph   
Max Gust Speed 10 mph   
Visibility 7 miles   
Events     

Key: T is trace of precipitation, MM is missing value
Source: NWS Daily Summary
Time(PST)TemperatureDew PointHumidity Pressure Visibility Wind DirectionWind SpeedGust SpeedPrecipitationEvents Conditions
12:53 AM 30.9°F 26.1°F 82% 29.97 in 7.0 miles NE 4.6 mph - N/A   Mostly Cloudy
1:53 AM 30.0°F 27.0°F 88% 29.98 in 7.0 miles Calm Calm - N/A   Overcast
2:53 AM 30.0°F 26.1°F 85% 29.99 in 7.0 miles ENE 5.8 mph - N/A   Overcast
3:53 AM 30.9°F 27.0°F 85% 29.99 in 7.0 miles Calm Calm - N/A   Mostly Cloudy
4:53 AM 28.9°F 26.1°F 89% 30.01 in 7.0 miles ENE 5.8 mph - N/A   Overcast
5:53 AM 30.9°F 27.0°F 85% 30.02 in 7.0 miles ENE 5.8 mph - N/A   Overcast
6:53 AM 30.0°F 25.0°F 82% 30.03 in 7.0 miles East 3.5 mph - N/A   Clear
7:53 AM 28.0°F 24.1°F 85% 30.06 in 5.0 miles Calm Calm - N/A   Mostly Cloudy
8:53 AM 35.1°F 28.9°F 78% 30.07 in 6.0 miles East 4.6 mph - N/A   Haze
9:53 AM 39.9°F 30.0°F 68% 30.09 in 6.0 miles East 5.8 mph - N/A   Haze
10:53 AM 41.0°F 30.9°F 67% 30.11 in 6.0 miles East 3.5 mph - N/A   Haze
11:53 AM 44.1°F 28.9°F 55% 30.11 in 7.0 miles East 5.8 mph - N/A   Mostly Cloudy
12:53 PM 46.9°F 28.0°F 48% 30.10 in 7.0 miles Calm Calm - N/A   Clear
1:53 PM 48.0°F 28.9°F 48% 30.10 in 7.0 miles Calm Calm - N/A   Clear
2:53 PM 46.9°F 21.9°F 37% 30.12 in 6.0 miles SW 5.8 mph - N/A   Haze
3:53 PM 45.0°F 25.0°F 46% 30.12 in 6.0 miles SSW 3.5 mph - N/A   Haze
4:53 PM 37.0°F 30.0°F 76% 30.14 in 5.0 miles Calm Calm - N/A   Haze
5:53 PM 34.0°F 28.0°F 79% 30.15 in 7.0 miles Calm Calm - N/A   Partly Cloudy
6:53 PM 35.1°F 28.0°F 76% 30.16 in 7.0 miles East 5.8 mph - N/A   Partly Cloudy
7:53 PM 33.8°F 28.4°F 81% 30.15 in 7.0 miles East 6.9 mph - N/A   Clear
8:53 PM 34.0°F 28.0°F 79% 30.17 in 7.0 miles East 5.8 mph - N/A   Clear
9:53 PM 34.0°F 28.9°F 82% 30.17 in 7.0 miles East 4.6 mph - N/A   Clear
10:53 PM 34.0°F 28.9°F 82% 30.16 in 7.0 miles ENE 4.6 mph - N/A   Clear
11:53 PM 34.0°F 28.9°F 82% 30.17 in 7.0 miles ENE 6.9 mph - N/A   Clear
Moon Phase
Nov. 10 Nov. 13 Nov. 20 Nov. 28 Dec. 06
Sunrise:07:17 AM (PST) Moon Rise:03:14 AM (PST)11/10
Sunset:04:46 PM (PST) Moon Set:02:48 PM (PST)11/10

Copyright © 2014 The Weather Underground, Inc.